Flag for Sweden Weather past 2 weeks in Gothenburg, Sweden

Now
41 °F

Sunny.


Feels Like: 37 °F
Forecast: 39 / 44 °F
Wind: 6 mph from Southwest

Location: Gothenburg / Save

Current Time: Mar 5, 2015 at 5:16:00 PM

Latest Report: Mar 5, 2015 at 4:50 PM


Visibility: 10 mi

Pressure: 30.36 "Hg

Humidity: 81%

Dew point: 36 °F

Location of GothenburgLocation

Historic Weather in Gothenburg — Graph

°F

Gothenburg temperature yesterday

Maximum temperature yesterday: 41 °F (at 11:20 AM)
Minimum temperature yesterday: 27 °F (at 10:20 PM)
Average temperature yesterday: 35 °F

Past Weeks' High & Low Weather Summary

 TemperatureHumidityPressure
High43 °F (Feb 18, 10:20 PM)100% (Feb 18, 5:00 PM)30.36 "Hg (Feb 18, 5:00 PM)
Low23 °F (Mar 5, 5:50 AM)61% (Feb 26, 9:29 PM)29.12 "Hg (Feb 23, 11:20 AM)
Average38 °F88%29.64 "Hg
* Reported Feb 18 4:20 PM — Mar 5 4:20 PM, Gothenburg, Weather by CustomWeather, © 2015

Note: Actual official high and low records may vary slightly from our data, if they occured in-between our weather recording intervals... More about our weather records

Advertising

Gothenburg weather history for previous 24 hours

 ConditionsComfort  
Time TempWeatherWind HumidityBarometerVisibility
4:20 PM
Thu, Mar 5
41 °FSunny.6 mph81%30.36 "Hg10 mi
3:50 PM41 °FSunny.7 mph76%30.36 "Hg10 mi
3:20 PM41 °FSunny.6 mph76%30.36 "Hg10 mi
2:50 PM41 °FSunny.7 mph76%30.36 "Hg10 mi
2:20 PM41 °FSunny.8 mph76%30.36 "Hg10 mi
1:50 PM43 °FSunny.10 mph76%30.36 "Hg10 mi
1:20 PM43 °FSunny.9 mph76%30.36 "Hg10 mi
12:50 PM41 °FSunny.12 mph70%30.36 "Hg10 mi
12:20 PM43 °FSunny.9 mph66%30.33 "Hg10 mi
11:50 AM41 °FSunny.6 mph66%30.33 "Hg10 mi
11:20 AM41 °FPassing clouds.3 mph66%30.33 "HgN/A
10:50 AM41 °FPassing clouds.5 mph66%30.33 "HgN/A
10:20 AM39 °FSunny.No wind75%30.33 "Hg10 mi
9:50 AM39 °FSunny.No wind81%30.30 "Hg10 mi
9:20 AM37 °FSunny.No wind87%30.30 "Hg10 mi
8:50 AM30 °FSunny.No wind93%30.30 "Hg10 mi
8:20 AM28 °FSunny.1 mph93%30.27 "Hg10 mi
7:50 AM27 °FSunny.2 mph93%30.27 "Hg10 mi
7:20 AM27 °FSunny.No wind93%30.27 "Hg10 mi
6:50 AM27 °FClear.3 mph93%30.24 "Hg10 mi
6:20 AM25 °FClear.2 mph93%30.24 "Hg10 mi
5:50 AM23 °FClear.No wind93%30.24 "Hg10 mi
5:20 AM27 °FClear.2 mph93%30.24 "Hg10 mi
4:20 AM25 °FClear.No wind93%30.21 "Hg10 mi
3:50 AM25 °FClear.2 mph93%30.21 "Hg10 mi
2:50 AM25 °FClear.No wind100%30.18 "HgN/A
2:20 AM25 °FClear.No wind93%30.18 "Hg10 mi
1:50 AM25 °FClear.2 mph93%30.18 "Hg10 mi
1:20 AM27 °FClear.3 mph93%30.18 "Hg10 mi
12:50 AM27 °FClear.2 mph93%30.15 "Hg10 mi
12:20 AM27 °FClear.2 mph93%30.15 "Hg10 mi
11:50 PM
Wed, Mar 4
27 °FClear.2 mph93%30.15 "Hg10 mi
11:20 PM28 °FClear.1 mph93%30.12 "Hg10 mi
10:20 PM27 °FClear.2 mph93%30.12 "Hg10 mi
9:50 PM30 °FClear.1 mph93%30.09 "Hg10 mi
9:20 PM30 °FClear.No wind86%30.09 "Hg10 mi
8:50 PM32 °FClear.2 mph87%30.07 "Hg10 mi
8:20 PM32 °FClear.No wind87%30.07 "Hg10 mi
7:50 PM34 °FClear.3 mph87%30.07 "Hg10 mi
7:20 PM36 °FClear.6 mph81%30.04 "Hg10 mi
6:50 PM36 °FClear.5 mph81%30.04 "Hg10 mi
5:50 PM37 °FClear.7 mph75%30.01 "Hg10 mi
5:20 PM39 °FSunny.8 mph75%29.98 "Hg10 mi
Weather by CustomWeather, © 2015

See weather overviewHow to use our weather pages